STARLINK-32888, 62966

Orbit data source: Space-Track

STARLINK-32888, 62966 is a payload satellite owned by SpaceX/Seattle (US) in LEO that was launched on Tue, 11 Feb 2025 UTC via an FALCON 9 launch vehicle from the Air Force Western Test Range (AFWTR). Payload-class satellites include a variety of spacecraft equipped with specific instruments for various scientific and technological missions. These include communications satellites like Starlink; space stations such as the ISS; scientific satellites like the Hubble; Earth observation satellites from companies like Planet Labs, Umbra, and HawkEye 360; GPS; miniature CubeSats for education and research; and military/defense satellites.

Loading next visibility...
Identifier
62966, 2025-029U
Orbit
LEO
Country
Flag of USUS
Related business
Manufacturer
SpaceX/Seattle
Mission
Operational Commercial Communications
Bus & Motor
STARLINK V2M, Unknown motor
Mass
730 kg wet, ~700 kg dry
Launch date (UTC)
2025-02-11 (1 year ago)
Launch vehicle
FALCON 9
Launch site
Air Force Western Test Range (AFWTR)
Object type
Payload
Rocket body
Debris
Shape & HBR
Box + 2 Pan, 17.7 m
Radar Cross Section
33.884 m², Large (>1 m²)

Expand to show TLE details & history
Last TLE update: 2 days ago

TLE from 2 days ago
0 STARLINK-32888
1 62966U 25029U   26170.24995638  .00004037  00000-0  14835-3 0  9997
2 62966  53.1610 120.9569 0001339 110.2216 249.8929 15.30197329 76868
Epoch: 2026-06-19T05:59Z
TLE epoch observation values (Epoch: 2026-06-19T05:59:56.231Z)
Latitude
Longitude
123.49097°
Altitude
476.438 km
Speed
7.629 km/s
True Right ascension
08h 03m 49s
True Declination
0° 00' 00"
Sunlit
Object was in daylight at epoch
Visualization orbit readout
Latitude
Unknown
Longitude
Unknown
Altitude
Unknown
Speed
Unknown
Apparent Right ascension
Unknown
Apparent Declination
Unknown
Sunlit
N/A
Visualization observer readout
Local Sidereal Time
07:17:06
Azimuth
Unknown
Elevation
Unknown
Doppler factor
Unknown
Orbital elements
Apogee altitude
476.397 km
Perigee altitude
474.562 km
Semi-major axis
6,853.616 km
Eccentricity
0.00013
Inclination
53.161°
RAAN
120.9569°
Arg. of periapsis
110.2216°
True anomaly
249.87849°
Mean anomaly
249.8929°
Eccentric anomaly
249.8857°
Mean motion
3.82528 °/min
Orbital period
94.11 mins
BSTAR
0.00014835
Loading maneuver chart data...
Computing Atmospheric mass density...
Loading historical data...
Loading historical data...
Loading historical data...
Loading historical data...
Loading historical data...
Loading historical data...
Loading historical data...

Documentation

Showing up to 5 results
|